Time,TemperatureF,DewpointF,PressureIn,WindDirection,WindDirectionDegrees,WindSpeedMPH,WindSpeedGustMPH,Humidity,HourlyPrecipIn,Conditions,Clouds,dailyrainin,SoftwareType,DateUTC
2013-07-29 00:12:00,75.3,71.9,29.71,SSW,203,0.0,0.0,89,0.00,,,0.06,WUHU216HW,2013-07-29 04:12:00,
2013-07-29 00:17:00,75.3,71.9,29.72,SSW,203,0.0,0.0,89,0.00,,,0.06,WUHU216HW,2013-07-29 04:17:00,
2013-07-29 00:24:00,75.2,71.8,29.72,SSW,203,0.0,0.0,89,0.00,,,0.06,WUHU216HW,2013-07-29 04:24:00,
2013-07-29 00:29:00,75.0,71.6,29.72,SSW,203,0.0,0.0,89,0.00,,,0.06,WUHU216HW,2013-07-29 04:29:00,
2013-07-29 00:34:00,75.0,71.6,29.73,SSW,203,0.0,0.0,89,0.00,,,0.06,WUHU216HW,2013-07-29 04:34:00,
2013-07-29 00:39:00,75.0,71.6,29.73,WSW,248,0.0,0.0,90,0.04,,,0.10,WUHU216HW,2013-07-29 04:39:00,
2013-07-29 00:44:00,74.8,71.7,29.73,WSW,248,0.0,0.0,90,0.24,,,0.31,WUHU216HW,2013-07-29 04:44:00,
2013-07-29 00:49:00,74.6,71.6,29.73,WSW,248,0.0,0.0,90,0.24,,,0.31,WUHU216HW,2013-07-29 04:49:00,
2013-07-29 00:54:00,74.3,71.2,29.73,WSW,248,0.0,0.0,90,0.31,,,0.37,WUHU216HW,2013-07-29 04:54:00,
2013-07-29 00:59:00,74.1,71.0,29.73,WSW,248,0.0,0.0,90,0.31,,,0.37,WUHU216HW,2013-07-29 04:59:00,
2013-07-29 01:04:00,74.1,71.0,29.73,WSW,248,0.0,0.0,90,0.31,,,0.37,WUHU216HW,2013-07-29 05:04:00,
2013-07-29 01:10:00,74.1,71.0,29.73,WSW,248,0.0,0.0,90,0.31,,,0.37,WUHU216HW,2013-07-29 05:10:00,
2013-07-29 01:15:00,73.5,70.5,29.73,WSW,248,0.0,0.0,90,0.31,,,0.37,WUHU216HW,2013-07-29 05:15:00,
2013-07-29 01:20:00,73.5,70.5,29.72,WSW,248,0.0,0.0,90,0.31,,,0.37,WUHU216HW,2013-07-29 05:20:00,
2013-07-29 01:25:00,73.4,70.3,29.72,WSW,248,0.0,0.0,90,0.31,,,0.37,WUHU216HW,2013-07-29 05:25:00,
2013-07-29 01:30:00,73.2,70.1,29.72,WSW,248,0.0,0.0,90,0.31,,,0.37,WUHU216HW,2013-07-29 05:30:00,
2013-07-29 01:35:00,73.2,70.1,29.72,WSW,248,0.0,0.0,90,0.31,,,0.37,WUHU216HW,2013-07-29 05:35:00,
2013-07-29 01:40:00,73.0,69.9,29.72,WSW,248,0.0,0.0,90,0.31,,,0.37,WUHU216HW,2013-07-29 05:40:00,
2013-07-29 01:45:00,72.8,69.8,29.72,WSW,248,0.0,0.0,90,0.31,,,0.37,WUHU216HW,2013-07-29 05:45:00,
2013-07-29 01:50:00,72.6,69.9,29.72,WSW,248,0.0,0.0,91,0.31,,,0.37,WUHU216HW,2013-07-29 05:50:00,
2013-07-29 01:55:00,72.6,69.9,29.71,WSW,248,0.0,0.0,91,0.31,,,0.37,WUHU216HW,2013-07-29 05:55:00,
2013-07-29 02:03:00,72.5,69.7,29.71,WSW,248,0.0,0.0,91,0.31,,,0.37,WUHU216HW,2013-07-29 06:03:00,
2013-07-29 02:08:00,72.5,69.7,29.71,WSW,248,0.0,0.0,91,0.31,,,0.37,WUHU216HW,2013-07-29 06:08:00,
2013-07-29 02:14:00,72.5,69.7,29.72,WSW,248,0.0,0.0,91,0.00,,,0.37,WUHU216HW,2013-07-29 06:14:00,
2013-07-29 02:19:00,72.3,69.5,29.72,WSW,248,0.0,0.0,91,0.00,,,0.37,WUHU216HW,2013-07-29 06:19:00,
2013-07-29 02:24:00,72.1,69.3,29.72,WSW,248,0.0,0.0,91,0.00,,,0.37,WUHU216HW,2013-07-29 06:24:00,
2013-07-29 02:29:00,72.1,69.3,29.72,WSW,248,0.0,0.0,91,0.00,,,0.37,WUHU216HW,2013-07-29 06:29:00,
2013-07-29 02:35:00,72.1,69.3,29.71,WSW,248,0.0,0.0,91,0.00,,,0.37,WUHU216HW,2013-07-29 06:35:00,
2013-07-29 02:40:00,72.1,69.3,29.71,WSW,248,0.0,0.0,91,0.00,,,0.37,WUHU216HW,2013-07-29 06:40:00,
2013-07-29 02:45:00,71.7,69.0,29.71,WSW,248,0.0,0.0,91,0.00,,,0.37,WUHU216HW,2013-07-29 06:45:00,
2013-07-29 02:50:00,71.7,69.0,29.71,WSW,248,0.0,0.0,91,0.00,,,0.37,WUHU216HW,2013-07-29 06:50:00,
2013-07-29 02:56:00,71.7,69.0,29.71,WSW,248,0.0,0.0,91,0.00,,,0.37,WUHU216HW,2013-07-29 06:56:00,
2013-07-29 03:01:00,71.7,69.0,29.71,WSW,248,0.0,0.0,91,0.00,,,0.37,WUHU216HW,2013-07-29 07:01:00,
2013-07-29 03:06:00,71.7,69.0,29.71,WSW,248,0.0,0.0,91,0.00,,,0.37,WUHU216HW,2013-07-29 07:06:00,
2013-07-29 03:11:00,71.7,69.0,29.71,WSW,248,0.0,0.0,91,0.00,,,0.37,WUHU216HW,2013-07-29 07:11:00,
2013-07-29 03:17:00,71.4,68.6,29.71,WSW,248,0.0,0.0,91,0.00,,,0.37,WUHU216HW,2013-07-29 07:17:00,
2013-07-29 03:22:00,71.2,68.1,29.71,WSW,248,0.0,0.0,90,0.00,,,0.37,WUHU216HW,2013-07-29 07:22:00,
2013-07-29 03:27:00,71.2,68.1,29.71,WSW,248,0.0,0.0,90,0.00,,,0.37,WUHU216HW,2013-07-29 07:27:00,
2013-07-29 03:33:00,71.2,68.1,29.71,WSW,248,0.0,0.0,91,0.00,,,0.37,WUHU216HW,2013-07-29 07:33:00,
2013-07-29 03:38:00,71.2,68.1,29.71,WSW,248,0.0,0.0,91,0.00,,,0.37,WUHU216HW,2013-07-29 07:38:00,
2013-07-29 03:44:00,71.2,68.1,29.71,WSW,248,0.0,0.0,91,0.00,,,0.37,WUHU216HW,2013-07-29 07:44:00,
2013-07-29 03:49:00,71.2,68.1,29.72,WSW,248,0.0,0.0,91,0.00,,,0.37,WUHU216HW,2013-07-29 07:49:00,
2013-07-29 03:54:00,71.2,68.1,29.72,WSW,248,0.0,0.0,91,0.00,,,0.37,WUHU216HW,2013-07-29 07:54:00,
2013-07-29 03:59:00,71.2,68.1,29.72,WSW,248,0.0,0.0,91,0.00,,,0.37,WUHU216HW,2013-07-29 07:59:00,
2013-07-29 04:04:00,71.0,68.3,29.72,WSW,248,0.0,0.0,91,0.00,,,0.37,WUHU216HW,2013-07-29 08:04:00,
2013-07-29 04:10:00,70.8,68.1,29.73,WSW,248,0.0,0.0,91,0.00,,,0.37,WUHU216HW,2013-07-29 08:10:00,
2013-07-29 04:15:00,70.8,68.1,29.73,WSW,248,0.0,0.0,91,0.00,,,0.37,WUHU216HW,2013-07-29 08:15:00,
2013-07-29 04:20:00,70.8,68.1,29.73,WSW,248,0.0,0.0,91,0.00,,,0.37,WUHU216HW,2013-07-29 08:20:00,
2013-07-29 04:25:00,70.8,68.1,29.74,WSW,248,0.0,0.0,91,0.00,,,0.37,WUHU216HW,2013-07-29 08:25:00,
2013-07-29 04:30:00,70.8,68.1,29.73,WSW,248,0.0,0.0,91,0.00,,,0.37,WUHU216HW,2013-07-29 08:30:00,
2013-07-29 04:36:00,70.8,68.1,29.73,WSW,248,0.0,0.0,91,0.00,,,0.37,WUHU216HW,2013-07-29 08:36:00,
2013-07-29 04:41:00,70.8,68.1,29.73,WSW,248,0.0,0.0,91,0.00,,,0.37,WUHU216HW,2013-07-29 08:41:00,
2013-07-29 04:46:00,70.8,68.1,29.74,WSW,248,0.0,0.0,91,0.00,,,0.37,WUHU216HW,2013-07-29 08:46:00,
2013-07-29 04:52:00,70.8,68.1,29.74,WSW,248,0.0,0.0,91,0.00,,,0.37,WUHU216HW,2013-07-29 08:52:00,
2013-07-29 04:57:00,70.8,68.1,29.74,WSW,248,0.0,0.0,92,0.00,,,0.37,WUHU216HW,2013-07-29 08:57:00,
2013-07-29 05:02:00,71.0,68.6,29.74,WSW,248,0.0,0.0,92,0.00,,,0.37,WUHU216HW,2013-07-29 09:02:00,
2013-07-29 05:08:00,71.0,68.6,29.74,WSW,248,0.0,0.0,92,0.00,,,0.37,WUHU216HW,2013-07-29 09:08:00,
2013-07-29 05:13:00,71.0,68.6,29.74,WSW,248,0.0,0.0,92,0.00,,,0.37,WUHU216HW,2013-07-29 09:13:00,
2013-07-29 05:18:00,71.2,68.7,29.74,WSW,248,0.0,0.0,92,0.00,,,0.37,WUHU216HW,2013-07-29 09:18:00,
2013-07-29 05:23:00,71.0,68.6,29.74,WSW,248,0.0,0.0,92,0.00,,,0.37,WUHU216HW,2013-07-29 09:23:00,
2013-07-29 05:28:00,71.2,68.7,29.74,WSW,248,0.0,0.0,92,0.00,,,0.37,WUHU216HW,2013-07-29 09:28:00,
2013-07-29 05:33:00,71.0,68.6,29.74,WSW,248,0.0,0.0,92,0.00,,,0.37,WUHU216HW,2013-07-29 09:33:00,
2013-07-29 05:38:00,71.0,68.6,29.74,WSW,248,0.0,0.0,92,0.00,,,0.37,WUHU216HW,2013-07-29 09:38:00,
2013-07-29 05:43:00,70.8,68.4,29.74,WSW,248,0.0,0.0,92,0.00,,,0.37,WUHU216HW,2013-07-29 09:43:00,
2013-07-29 05:48:00,70.8,68.4,29.74,WSW,248,0.0,0.0,92,0.00,,,0.37,WUHU216HW,2013-07-29 09:48:00,
2013-07-29 05:53:00,70.8,68.4,29.75,WSW,248,0.0,0.0,92,0.00,,,0.37,WUHU216HW,2013-07-29 09:53:00,
2013-07-29 05:58:00,70.7,68.2,29.75,WSW,248,0.0,0.0,92,0.00,,,0.37,WUHU216HW,2013-07-29 09:58:00,
2013-07-29 06:04:00,70.5,67.7,29.75,WSW,248,0.0,0.0,91,0.00,,,0.37,WUHU216HW,2013-07-29 10:04:00,
2013-07-29 07:05:00,70.3,67.8,29.76,WSW,248,0.0,0.0,92,0.00,,,0.37,WUHU216HW,2013-07-29 11:05:00,
2013-07-29 09:46:00,74.1,69.6,29.80,North,0,0.0,0.0,86,0.00,,,0.37,WUHU216HW,2013-07-29 13:46:00,
2013-07-29 09:52:00,74.3,69.5,29.80,NNE,23,0.0,0.0,85,0.00,,,0.37,WUHU216HW,2013-07-29 13:52:00,
2013-07-29 09:58:00,74.8,69.7,29.81,NE,45,2.2,3.8,84,0.00,,,0.37,WUHU216HW,2013-07-29 13:58:00,
2013-07-29 10:03:00,75.0,69.5,29.81,ENE,68,0.0,3.8,83,0.00,,,0.37,WUHU216HW,2013-07-29 14:03:00,
2013-07-29 20:14:00,78.6,68.4,29.83,North,0,0.0,0.0,71,0.00,,,0.00,WUHU216HW,2013-07-30 00:14:00,
2013-07-29 22:29:00,95.5,78.9,29.75,SSE,158,0.0,0.0,59,0.00,,,0.00,WUHU216HW,2013-07-30 02:29:00,
2013-07-29 22:30:00,95.5,78.9,29.75,SSE,158,0.0,0.0,59,0.00,,,0.00,WUHU216HW,2013-07-30 02:30:00,
2013-07-29 22:31:00,94.6,78.1,29.75,SE,135,3.5,3.5,59,0.00,,,0.00,WUHU216HW,2013-07-30 02:31:00,
2013-07-29 22:32:00,94.6,78.1,29.75,SE,135,3.5,3.5,59,0.00,,,0.00,WUHU216HW,2013-07-30 02:32:00,
2013-07-29 22:33:00,93.7,78.3,29.75,SE,135,0.0,3.5,61,0.00,,,0.00,WUHU216HW,2013-07-30 02:33:00,
2013-07-29 22:34:00,93.7,78.3,29.75,SE,135,0.0,3.5,61,0.00,,,0.00,WUHU216HW,2013-07-30 02:34:00,
2013-07-29 22:35:00,93.3,78.4,29.75,SE,135,0.0,3.5,62,0.00,,,0.00,WUHU216HW,2013-07-30 02:35:00,
2013-07-29 22:36:00,93.3,78.4,29.75,SE,135,0.0,3.5,62,0.00,,,0.00,WUHU216HW,2013-07-30 02:36:00,
2013-07-29 22:37:00,93.2,79.2,29.75,SE,135,0.0,3.5,64,0.00,,,0.00,WUHU216HW,2013-07-30 02:37:00,
2013-07-29 22:38:00,93.2,79.2,29.75,SE,135,0.0,3.5,64,0.00,,,0.00,WUHU216HW,2013-07-30 02:38:00,
2013-07-29 22:39:00,93.0,78.5,29.74,NW,315,0.0,3.5,63,0.00,,,0.00,WUHU216HW,2013-07-30 02:39:00,
2013-07-29 22:40:00,93.0,78.5,29.75,NW,315,0.0,3.5,63,0.00,,,0.00,WUHU216HW,2013-07-30 02:40:00,
2013-07-29 22:41:00,93.0,78.5,29.75,NW,315,0.0,3.5,62,0.00,,,0.00,WUHU216HW,2013-07-30 02:41:00,
2013-07-29 22:42:00,93.0,78.5,29.74,NW,315,0.0,3.5,62,0.00,,,0.00,WUHU216HW,2013-07-30 02:42:00,
2013-07-29 22:43:00,93.0,78.5,29.75,NW,315,0.0,0.0,62,0.00,,,0.00,WUHU216HW,2013-07-30 02:43:00,
2013-07-29 22:44:00,93.0,78.5,29.75,NW,315,0.0,0.0,63,0.00,,,0.00,WUHU216HW,2013-07-30 02:44:00,
2013-07-29 22:45:00,93.0,78.5,29.74,NW,315,0.0,0.0,63,0.00,,,0.00,WUHU216HW,2013-07-30 02:45:00,
2013-07-29 22:46:00,93.0,78.5,29.75,NW,315,0.0,0.0,63,0.00,,,0.00,WUHU216HW,2013-07-30 02:46:00,
2013-07-29 22:47:00,93.0,78.5,29.75,NW,315,0.0,0.0,63,0.00,,,0.00,WUHU216HW,2013-07-30 02:47:00,
2013-07-29 22:48:00,93.5,79.5,29.75,NNW,338,0.0,0.0,64,0.00,,,0.00,WUHU216HW,2013-07-30 02:48:00,
2013-07-29 22:49:00,93.5,79.5,29.75,NNW,338,0.0,0.0,64,0.00,,,0.00,WUHU216HW,2013-07-30 02:49:00,
2013-07-29 22:50:00,93.5,79.5,29.75,NW,315,0.0,0.0,63,0.00,,,0.00,WUHU216HW,2013-07-30 02:50:00,
2013-07-29 22:51:00,93.5,79.5,29.74,NW,315,0.0,0.0,63,0.00,,,0.00,WUHU216HW,2013-07-30 02:51:00,
2013-07-29 22:52:00,93.3,78.9,29.75,NW,315,0.0,0.0,63,0.00,,,0.00,WUHU216HW,2013-07-30 02:52:00,
2013-07-29 22:53:00,93.3,78.9,29.75,NW,315,0.0,0.0,63,0.00,,,0.00,WUHU216HW,2013-07-30 02:53:00,
2013-07-29 22:54:00,93.2,78.7,29.74,NW,315,0.0,0.0,63,0.00,,,0.00,WUHU216HW,2013-07-30 02:54:00,
2013-07-29 22:55:00,93.2,78.7,29.75,NW,315,0.0,0.0,63,0.00,,,0.00,WUHU216HW,2013-07-30 02:55:00,
2013-07-29 22:56:00,93.2,78.7,29.75,ENE,68,0.0,0.0,64,0.00,,,0.00,WUHU216HW,2013-07-30 02:56:00,
2013-07-29 22:58:00,93.3,78.9,29.74,ENE,68,0.0,0.0,63,0.00,,,0.00,WUHU216HW,2013-07-30 02:58:00,
2013-07-29 22:59:00,93.3,78.9,29.75,ENE,68,0.0,0.0,63,0.00,,,0.00,WUHU216HW,2013-07-30 02:59:00,
2013-07-29 23:01:00,93.3,78.9,29.75,East,90,0.0,0.0,63,0.00,,,0.00,WUHU216HW,2013-07-30 03:01:00,
2013-07-29 23:02:00,93.3,78.9,29.75,East,90,0.0,0.0,63,0.00,,,0.00,WUHU216HW,2013-07-30 03:02:00,
2013-07-29 23:03:00,93.0,78.5,29.74,NW,315,0.0,0.0,63,0.00,,,0.00,WUHU216HW,2013-07-30 03:03:00,
2013-07-29 23:04:00,93.0,78.5,29.74,NW,315,0.0,0.0,63,0.00,,,0.00,WUHU216HW,2013-07-30 03:04:00,
2013-07-29 23:05:00,92.8,78.8,29.75,North,0,0.0,0.0,64,0.00,,,0.00,WUHU216HW,2013-07-30 03:05:00,
2013-07-29 23:08:00,92.8,78.8,29.75,NNW,338,0.0,0.0,64,0.00,,,0.00,WUHU216HW,2013-07-30 03:08:00,
2013-07-29 23:09:00,92.8,78.8,29.75,NNW,338,0.0,0.0,64,0.00,,,0.00,WUHU216HW,2013-07-30 03:09:00,
2013-07-29 23:10:00,92.8,78.8,29.75,NNW,338,0.0,0.0,64,0.00,,,0.00,WUHU216HW,2013-07-30 03:10:00,
2013-07-29 23:11:00,92.8,78.8,29.75,NNE,23,0.0,0.0,63,0.00,,,0.00,WUHU216HW,2013-07-30 03:11:00,
2013-07-29 23:13:00,92.8,78.8,29.75,NNE,23,0.0,0.0,63,0.00,,,0.00,WUHU216HW,2013-07-30 03:13:00,
2013-07-29 23:14:00,93.0,78.5,29.74,NNE,23,0.0,0.0,63,0.00,,,0.00,WUHU216HW,2013-07-30 03:14:00,
2013-07-29 23:16:00,93.0,78.5,29.74,WNW,293,0.0,0.0,63,0.00,,,0.00,WUHU216HW,2013-07-30 03:16:00,
2013-07-29 23:17:00,93.0,78.5,29.74,WNW,293,0.0,0.0,63,0.00,,,0.00,WUHU216HW,2013-07-30 03:17:00,
2013-07-29 23:19:00,93.0,78.5,29.74,ENE,68,0.0,0.0,63,0.00,,,0.00,WUHU216HW,2013-07-30 03:19:00,
2013-07-29 23:21:00,93.0,78.5,29.74,ENE,68,0.0,0.0,63,0.00,,,0.00,WUHU216HW,2013-07-30 03:21:00,
2013-07-29 23:22:00,92.8,78.8,29.74,NNE,23,0.0,0.0,64,0.00,,,0.00,WUHU216HW,2013-07-30 03:22:00,
2013-07-29 23:23:00,92.8,78.8,29.74,NNE,23,0.0,0.0,64,0.00,,,0.00,WUHU216HW,2013-07-30 03:23:00,
2013-07-29 23:26:00,92.3,78.3,29.74,NNW,338,0.0,0.0,64,0.00,,,0.00,WUHU216HW,2013-07-30 03:26:00,
2013-07-29 23:29:00,92.1,78.1,29.74,NNW,338,0.0,0.0,64,0.00,,,0.00,WUHU216HW,2013-07-30 03:29:00,
2013-07-29 23:30:00,92.1,78.1,29.74,ENE,68,0.0,0.0,63,0.00,,,0.00,WUHU216HW,2013-07-30 03:30:00,